www.pogodaiklimat.ru

Погода и климат >> Архив погоды >> Румыния >> Darabani


ПОГОДА в Darabani

  • Прогноз погоды в Darabani
  • Монитор погоды в Darabani
  • Климат города

АРХИВ ПОГОДЫ в Darabani

Время (UTC), дата Ветер
(напр.,м/с)
 
Видим.   Явления Облачность Т
(С)
Тd
(С)
f
(%)
Тe
(С)
Тes
(С)
Комфортность P
(гПа)
Po
(гПа)
Тmin
(С)
Tmax
(С)
R
(мм)
R24
(мм)
S
(см)
09 13.06 СЗ 2-4
{5}
10 км 10/5 600 м
[Cb calv Ac As]
+22.5 -4.0 17 +21 +24 комфорт 1007.8 978.0
12 13.06 СВ 1-3
{4}
10 км 8/4 600 м
[Cu med, cong Ac As]
+25.0 1006.1 976.5
15 13.06 С 3-4
{4}
10 км 8/4 600 м
[Cb calv Ac As]
+23.8 1005.1 975.5
18 13.06 С 2 10 км 8/4 600 м
[Cb calv Ac As]
+23.2 +19 +19 1005.9 976.1 +19.3 +26.4
21 13.06 СВ 2-3
{3}
н/о н/о +21.4 +19 +19 1006.8 976.9
00 14.06 СВ 2-2
{4}
н/о н/о +20.5 +20 +20 1006.6 976.6
03 14.06 С 2-3
{4}
н/о н/о +18.2 +19 +19 1006.6 976.3
06 14.06 ЮВ 1 4000 м дымка 9/5 600 м
[Cb calv Ac As]
+21.4 1006.7 976.8 +18.2 +23.2
09 14.06 СЗ 2-6
{7}
4000 м слабый ливневой дождь 10/6 600 м
[Cb cap Ac As]
+21.0 1007.2 977.2 0.4
12 14.06 З 5-9
{9}
4000 м гроза без осадков {ливн. осадки} 10/8 600 м
[Cb cap Ac As]
+18.7 1007.6 977.3 4
15 14.06 СВ 1-3
{10}
4000 м гроза, ливневой дождь 10/6 600 м
[Cb cap Ac As]
+18.2 1009.5 979.2 12
18 14.06 З 2-3
{5}
10 км {гроза, ливн. осадки} 9/3 600 м
[Cu med, cong Ac As]
+17.7 1008.4 978.1 +17.1 +23.4 1
21 14.06 З 2-4
{4}
н/о н/о +17.2 +17.2 100 +17 +17 1010.0 979.5
00 15.06 СЗ 3-5
{5}
н/о н/о +16.1 +16.1 100 +16 +16 1009.5 978.9
03 15.06 С 3-5
{5}
н/о н/о +16.1 +16.1 100 +16 +16 1009.6 979.1
06 15.06 С 2 2000 м дымка 10/10 600 м
[Sc]
+16.9 1010.4 979.9 +15.7 +17.7
09 15.06 З 2-5
{5}
4000 м дымка 10/5 600 м
[Cb calv Ac As]
+18.3 +19 +21 1011.1 980.7
12 15.06 СЗ 2-6
{6}
10 км 9/4 600 м
[Cb calv Ac As]
+22.1 1011.1 981.1
15 15.06 СЗ 3-6
{7}
10 км 10/5 600 м
[Cb calv Ac As]
+22.7 1010.7 980.8
18 15.06 СЗ 4 10 км 6/5 600 м
[Cb calv Ci fib]
+19.1 +18 +18 1012.0 981.6 +16.9 +23.5
21 15.06 СЗ 3-5
{6}
н/о н/о +17.8 +17.8 100 +18 +18 1013.7 983.1
00 16.06 СЗ 3-5
{6}
н/о н/о +16.3 1013.6 982.9
03 16.06 СЗ 3-4
{6}
н/о н/о +15.7 +15.7 100 +15 +15 1013.9 983.2
06 16.06 С 4 4000 м дымка 5/1 600 м
[Cu med, cong Ac trans]
+19.1 1014.7 984.2 +15.6 +19.1
09 16.06 С 4-5
{7}
10 км 10/5 600 м
[Cb calv Ac As]
+19.2 1015.3 984.8
12 16.06 С 3-5
{7}
10 км {ливн. осадки} 10/4 600 м
[Cb calv Ac As]
+20.5 1014.4 984.1 0.5
15 16.06 СВ 5-6
{6}
10 км 10/5 600 м
[Cb calv Ac As]
+21.4 1014.2 984.0
18 16.06 СВ 4-5
{8}
10 км 10/4 600 м
[Cu med, cong Ac As]
+20.5 1013.8 983.5 +18.6 +22.4
21 16.06 СЗ 2-4
{5}
н/о н/о +18.5 +19 +19 1014.5 984.0
00 17.06 С 5-7
{7}
н/о н/о +17.3 +17 +17 1014.0 983.4
03 17.06 СЗ 3-5
{6}
н/о н/о +16.1 +16 +16 1013.7 983.0 9
06 17.06 С 4 4000 м слабый ливневой дождь 10/6 600 м
[Cb calv Ac As]
+16.1 1013.7 983.0 +16.0 +20.5 0.4
09 17.06 С 5-7
{8}
4000 м в посл. час ливневой дождь 10/4 600 м
[Cb calv Ac As]
+17.0 +16 +18 1013.7 983.1 2
12 17.06 СЗ 4-6
{6}
10 км слабый ливневой дождь 10/6 600 м
[Cb calv Ac As]
+16.9 +17 +18 1013.6 982.9 4
15 17.06 З 4-7
{8}
10 км {ливн. осадки} 10/5 600 м
[Cb calv Ac As]
+17.4 +17 +18 1012.5 981.9 0.2
18 17.06 СЗ 5 4000 м слабый ливневой дождь 10/6 600 м
[Cb calv Ac As]
+16.9 +16 +16 1013.4 982.8 +16.1 +18.3 2
21 17.06 СЗ 4-5
{5}
н/о н/о +16.2 +16 +16 1013.8 983.1 0.7
00 18.06 С 4-5
{6}
н/о н/о +16.7 +16.7 100 +16 +16 1013.8 983.1
03 18.06 В 2-4
{5}
н/о н/о +17.2 +18 +18 1013.8 983.2
06 18.06 штиль 0 4000 м дымка 9/0
[Ac As]
+22.1 1014.0 984.0 +16.0 +22.1
12 18.06 В 1-2
{3}
10 км в посл. час ливневой дождь 9/4 600 м
[Cb calv Ac As]
+23.3 +19 +24 1014.7 984.6 0.5
15 18.06 СВ 4-6
{6}
10 км 5/1 600 м
[Cu med, cong Ac trans Ci fib]
+25.5 1013.8 984.1
18 18.06 С 4-7
{7}
10 км 6/4 600 м
[Cb calv Ac trans]
+24.0 1014.5 984.6 +19.5 +26.4
21 18.06 С 4-6
{6}
н/о н/о +20.6 +19 +19 1016.8 986.5
00 19.06 СЗ 3-4
{5}
н/о н/о +18.2 +18 +18 1017.6 987.0
03 19.06 СЗ 3-5
{5}
н/о н/о +17.1 +17 +17 1018.4 987.7
06 19.06 СЗ 2 10 км 5/3 600 м
[Cu med, cong Ac As]
+19.6 1018.9 988.4 +16.9 +23.9
09 19.06 С 3-5
{6}
10 км ясно +24.4 +20 +35 опасность
простуды
1018.7 988.7
12 19.06 СЗ 2-4
{5}
10 км 3/3 600 м
[Cu med, cong]
+27.3 +23 +34 комфорт 1018.1 988.4
15 19.06 СВ 2-3
{3}
10 км 4/4 600 м
[Cu med, cong]
+27.4 +23 +26 комфорт 1017.2 987.6
18 19.06 С 1 10 км 3/3 600 м
[Sc diur, vesp]
+25.7 +21 +21 комфорт 1017.8 988.0 +19.6 +29.1
21 19.06 СЗ 3-3
{3}
н/о н/о +24.2 +20 +20 1019.0 989.0
00 20.06 СЗ 4-6
{6}
н/о н/о +20.3 +20.3 100 +25 +25 комфорт 1020.4 989.9
03 20.06 СЗ 4-6
{6}
н/о н/о +19.1 +2.6 33 +19 +19 1021.4 990.7

 

Местоположение метеостанции Darabani (Румыния): широта 48.20 долгота 26.58 высота над уровнем моря 260 м.

В архиве по умолчанию представлена погода в Darabani за последнюю неделю. Архивные данные за месяц целиком и за предыдущие месяцы, начиная с января 2011 года, Вы можете получить, выбрав интересующий диапазон дат из раскрывающегося списка и нажав кнопку "Ввод!".


*Определитесь, кто Вы:
робот инопланетянин человек

Внимание! Время в таблицах - всемирное. Для получения местного времени необходимо прибавить поправку, которая в Darabani равна 2 ч.

Смотрите также архив погоды в соседних городах и на ближайших метеорологических станциях:

Погода в Бричанах (Молдова) (41 км)
Погода в Каменец-Подольском (Хмельницкая область, Украина) (50 км)
Погода в Botosani (Румыния) (53 км)
Погода в Черновцах (Черновицкая область, Украина) (54 км)
Погода в Stanca Stefanesti (Румыния) (63 км)
Погода в Radauti (Румыния) (65 км)
Погода в Suceava (Румыния) (68 км)
Погода в Новоднестровске (Черновицкая область, Украина) (76 км)
Погода в Новой Ушице (Хмельницкая область, Украина) (88 км)
Погода в Могилев-Подольском (Винницкая область, Украина) (93 км)

Пояснения к столбцам:

Ветер - указаны скорость ветра в м/с - средняя за 10 мин, порывы в срок и между сроками (в фигурных скобках) и направление, откуда дует ветер: С - северный, СВ - северо-восточный, В - восточный, ЮВ - юго-восточный, Ю - южный, ЮЗ - юго-западный, З - западный, СЗ - северо-западный.
Видимость - горизонтальная дальность видимости в метрах или километрах. При видимости от 1 до 10 км при отсутствии осадков обычно наблюдается дымка, при ухудшении видимости до 1 км и менее - туман. В сухую погоду видимость может ухудшаться дымом, пылью или мглою.
Явления - указаны атмосферные явления, наблюдавшиеся в срок или в последний час перед сроком; фигурными скобками обозначены явления, наблюдавшиеся между сроками (за 1-3 часа до срока); квадратными скобками обозначены град или гололедные отложения с указанием их диаметра в мм.
Облачность - указаны через наклонную черту общая и нижняя облачность в баллах и высота нижней границы облаков в метрах; квадратными скобками обозначены формы облаков: Ci - перистые, Cs - перисто-слоистые, Cc - перисто-кучевые, Ac - высококучевые, As - высокослоистые, Sc - слоисто-кучевые, Ns - слоисто-дождевые, Cu - кучевые, Cb - кучево-дождевые. Подробнее классификацию облаков см. в Атласе облаков (PDF).
T - Температура воздуха - температура, измеренная на высоте 2 м над землей.
Td - Температура точки росы - температура, при понижении до которой содержащийся в воздухе водяной пар достигнет насыщения.
f - Относительная влажность воздуха - влажноcть воздуха, измеренная на высоте 2 м над землей.
Te - Эффективная температура - температура, которую ощущает одетый по сезону человек в тени. Характеристика душности погоды. При расчете учитывается влияние влажности воздуха и скорости ветра на теплоощущения человека.
Tes - Эффективная температура на солнце - температура, которую ощущает человек, с поправкой на солнечный нагрев. Характеристика знойности погоды. Зависит от высоты солнца над горизонтом, облачности и скорости ветра. Ночью, в пасмурную погоду, а также при ветре 12 м/с и более поправка равна нулю.
P - Атмосферное давление - приведенное к уровню моря атмосферное давление.
Po - Атмосферное давление - измеренное на уровне метеостанции атмосферное давление.
Tmin - Минимальная температура - минимум температуры воздуха на высоте 2 м над землей.
Tmax - Максимальная температура - максимум температуры воздуха на высоте 2 м над землей.
R - Количество осадков - Количество выпавших осадков за период времени, мм. При наведении курсора мыши на число - период времени, за который выпало указанное количество осадков.
R24 - Количество осадков - Количество выпавших осадков за 24 часа, мм.
S - Снежный покров - Высота снежного покрова, см. При наведении курсора мыши на число - состояние снежного покрова и степень покрытия местности в баллах.